Time_in_sec,Latitude,Longitude,Altitude,Nbsat_max_qualitysignal,Nbsat_locked,valid_data
1314272633.70442414,47.37533951,8.55006981,510.46868896,0,5,1
1314272725.94152808,47.37540436,8.55016327,499.26065063,0,5,1
1314272726.00462484,47.37540436,8.55016327,499.60546875,0,5,1
1314272726.05245972,47.37540436,8.55016422,499.68637085,0,5,1
1314272726.10242748,47.37540436,8.55016422,499.73980713,0,5,1
1314272726.15048671,47.37540436,8.55016422,499.79318237,0,5,1
1314272726.20054841,47.37540436,8.55016422,499.84652710,0,5,1
1314272726.25472093,47.37540436,8.55016422,500.21875000,0,5,1
1314272726.30049992,47.37540436,8.55016422,500.27313232,0,5,1
1314272726.35289526,47.37540436,8.55016422,500.32745361,0,5,1
1314272726.40445828,47.37540436,8.55016422,500.38177490,0,5,1
1314272726.45250034,47.37540436,8.55016422,500.43600464,0,5,1
1314272726.50144577,47.37540436,8.55016327,500.80422974,0,5,1
1314272726.55348372,47.37540436,8.55016327,500.87100220,0,5,1
1314272726.60460186,47.37540054,8.55016327,500.92626953,0,5,1
1314272726.65225863,47.37540054,8.55016327,500.98147583,0,5,1
1314272726.70153284,47.37540054,8.55016327,501.03668213,0,5,1
1314272726.75330257,47.37540054,8.55016327,501.42407227,0,5,1
1314272726.80444980,47.37540054,8.55016327,501.48037720,0,5,1
1314272726.85340977,47.37540054,8.55016327,501.53662109,0,5,1
1314272726.90611506,47.37540054,8.55016232,501.59286499,0,5,1
1314272726.95349121,47.37540054,8.55016232,501.64904785,0,5,1
1314272727.00151396,47.37540054,8.55016232,502.01519775,0,5,1
1314272727.05361915,47.37540054,8.55016232,502.08499146,0,5,1
1314272727.10445881,47.37540054,8.55016232,502.14221191,0,5,1
1314272727.15358686,47.37540054,8.55016232,502.19943237,0,5,1
1314272727.20213723,47.37540054,8.55016136,502.25659180,0,5,1
1314272727.25359631,47.37540054,8.55016232,502.63040161,0,5,1
1314272727.30444431,47.37540054,8.55016136,502.68853760,0,5,1
1314272727.35247993,47.37539673,8.55016136,502.74664307,0,5,1
1314272727.40519762,47.37539673,8.55016136,502.80468750,0,5,1
1314272727.45409656,47.37539673,8.55016136,502.86270142,0,5,1
1314272727.50158572,47.37539673,8.55016136,503.22933960,0,5,1
1314272727.55252790,47.37539673,8.55016136,503.28738403,0,5,1
1314272727.60448146,47.37539673,8.55016136,503.34634399,0,5,1
1314272727.65257955,47.37539673,8.55016136,503.40524292,0,5,1
1314272727.70150256,47.37539673,8.55016136,503.46414185,0,5,1
1314272727.75348592,47.37539673,8.55016136,503.82046509,0,5,1
1314272727.80150080,47.37539673,8.55016041,503.88034058,0,5,1
1314272727.85349035,47.37539673,8.55016041,503.94015503,0,5,1
1314272727.90149760,47.37539673,8.55016041,503.99993896,0,5,1
1314272727.94171882,47.37539673,8.55016041,504.05969238,0,5,1
1314272728.00494242,47.37539673,8.55016041,504.40374756,0,5,1
1314272728.05308223,47.37539673,8.55015945,504.47964478,0,5,1
1314272728.10145974,47.37539673,8.55015945,504.54031372,0,5,1
1314272728.15248179,47.37539673,8.55015945,504.60095215,0,5,1
1314272728.20495558,47.37539673,8.55015945,504.66156006,0,5,1
1314272728.25170898,47.37539673,8.55015755,505.01010132,0,5,1
1314272728.30164099,47.37539673,8.55015755,505.07156372,0,5,1
1314272728.35359383,47.37539673,8.55015755,505.13302612,0,5,1
1314272728.40143919,47.37539673,8.55015755,505.19442749,0,5,1
1314272728.45360947,47.37539291,8.55015755,505.25582886,0,5,1
1314272728.50477290,47.37539291,8.55015755,505.60589600,0,5,1
1314272728.55247808,47.37539291,8.55015659,505.66149902,0,5,1
1314272728.60156775,47.37539291,8.55015659,505.72372437,0,5,1
1314272728.65356731,47.37539291,8.55015564,505.78588867,0,5,1
1314272728.70157790,47.37539291,8.55015564,505.84805298,0,5,1
1314272728.75260186,47.37539291,8.55015564,506.19549561,0,5,1
1314272728.80458546,47.37539291,8.55015469,506.25387573,0,5,1
1314272728.85329890,47.37539291,8.55015469,506.31680298,0,5,1
1314272728.90150094,47.37539291,8.55015373,506.37969971,0,5,1
1314272728.95244241,47.37539291,8.55015373,506.44253540,0,5,1
1314272729.00156879,47.37539291,8.55015373,506.78192139,0,5,1
1314272729.04442978,47.37539291,8.55015278,506.84799194,0,5,1
1314272729.10555959,47.37539291,8.55015278,506.89892578,0,5,1
1314272729.15355849,47.37539291,8.55015278,506.97528076,0,5,1
1314272729.20045614,47.37539291,8.55015182,507.03887939,0,5,1
1314272729.25250244,47.37538910,8.55015373,507.37716675,0,5,1
1314272729.30156064,47.37538910,8.55015373,507.44161987,0,5,1
1314272729.35327601,47.37538910,8.55015278,507.50598145,0,5,1
1314272729.40561390,47.37538910,8.55015278,507.57034302,0,5,1
1314272729.45229650,47.37538910,8.55015278,507.63467407,0,5,1
1314272729.50152206,47.37538910,8.55015278,507.95477295,0,5,1
1314272729.55249405,47.37538910,8.55015564,508.03790283,0,5,1
1314272729.60458326,47.37538910,8.55015564,508.10305786,0,5,1
1314272729.65250111,47.37538910,8.55015564,508.16821289,0,5,1
1314272729.70159674,47.37538910,8.55015564,508.23330688,0,5,1
1314272729.75360131,47.37538528,8.55015564,508.54486084,0,5,1
1314272729.80561543,47.37538528,8.55015850,508.63079834,0,5,1
1314272729.85417724,47.37538528,8.55015850,508.69677734,0,5,1
1314272729.90160370,47.37538528,8.55015850,508.76272583,0,5,1
1314272729.94162178,47.37538528,8.55015850,508.82864380,0,5,1
1314272730.00156283,47.37538528,8.55015850,509.11300659,0,5,1
1314272730.05258203,47.37538528,8.55016041,509.21392822,0,5,1
1314272730.10154200,47.37538528,8.55016041,509.28067017,0,5,1
1314272730.15246391,47.37538528,8.55016041,509.34735107,0,5,1
1314272730.20159411,47.37538147,8.55016041,509.41403198,0,5,1
1314272730.25101542,47.37538147,8.55016327,509.70660400,0,5,1
1314272730.30161643,47.37538147,8.55016327,509.77395630,0,5,1
1314272730.35259366,47.37538147,8.55016327,509.84130859,0,5,1
1314272730.40494967,47.37538147,8.55016327,509.90859985,0,5,1
1314272730.45246792,47.37538147,8.55016327,509.97586060,0,5,1
1314272730.50152802,47.37538147,8.55016327,510.25756836,0,5,1
1314272730.55247283,47.37538147,8.55016422,510.32583618,0,5,1
1314272730.60139370,47.37538147,8.55016422,510.39370728,0,5,1
1314272730.65352035,47.37538147,8.55016422,510.46151733,0,5,1
1314272730.70150304,47.37538147,8.55016422,510.52932739,0,5,1
1314272730.75257945,47.37538147,8.55016518,510.79736328,0,5,1
1314272730.80462456,47.37538147,8.55016518,510.87298584,0,5,1
1314272730.85259247,47.37538147,8.55016518,510.94140625,0,5,1
1314272730.90477800,47.37537766,8.55016518,511.00976562,0,5,1
1314272730.95247126,47.37537766,8.55016518,511.07812500,0,5,1
1314272731.00460243,47.37537766,8.55016613,511.33029175,0,5,1
1314272731.05573964,47.37537766,8.55016613,511.41305542,0,5,1
1314272731.10161948,47.37537766,8.55016613,511.48199463,0,5,1
1314272731.15360332,47.37537766,8.55016613,511.55087280,0,5,1
1314272731.20146441,47.37537766,8.55016613,511.61972046,0,5,1
1314272731.25257969,47.37537766,8.55016708,511.86804199,0,5,1
1314272731.30465531,47.37537766,8.55016708,511.93743896,0,5,1
1314272731.35253143,47.37537384,8.55016708,512.00677490,0,5,1
1314272731.40451908,47.37537384,8.55016708,512.07611084,0,5,1
1314272731.45245695,47.37537384,8.55016708,512.14538574,0,5,1
1314272731.50162625,47.37537384,8.55016804,512.37530518,0,5,1
1314272731.55350208,47.37537384,8.55016613,512.45782471,0,5,1
1314272731.60458708,47.37537384,8.55016613,512.52770996,0,5,1
1314272731.65259409,47.37537384,8.55016613,512.59753418,0,5,1
1314272731.70457220,47.37537384,8.55016613,512.66729736,0,5,1
1314272731.75249028,47.37537384,8.55016327,512.89038086,0,5,1
1314272731.80061984,47.37537384,8.55016327,512.96057129,0,5,1
1314272731.85045719,47.37537384,8.55016327,513.03076172,0,5,1
1314272731.90159965,47.37537003,8.55016327,513.10095215,0,5,1
1314272731.94249105,47.37537003,8.55016327,513.17108154,0,5,1
1314272732.00215220,47.37537003,8.55016422,513.37432861,0,5,1
1314272732.05359006,47.37537003,8.55016041,513.45416260,0,5,1
1314272732.10148859,47.37537003,8.55016041,513.52465820,0,5,1
1314272732.15245056,47.37537003,8.55016041,513.59509277,0,5,1
1314272732.20149851,47.37537003,8.55016041,513.66546631,0,5,1
1314272732.25648546,47.37537003,8.55015945,513.86828613,0,5,1
1314272732.30547810,47.37537003,8.55015945,513.93902588,0,5,1
1314272732.35346627,47.37537003,8.55015850,514.00976562,0,5,1
1314272732.40447259,47.37537003,8.55015850,514.08050537,0,5,1
1314272732.45294261,47.37537003,8.55015850,514.15118408,0,5,1
1314272732.50169754,47.37537003,8.55015945,514.34918213,0,5,1
1314272732.54451036,47.37537003,8.55015850,514.42114258,0,5,1
1314272732.60144997,47.37537003,8.55015850,514.47796631,0,5,1
1314272732.65402937,47.37537003,8.55015850,514.56317139,0,5,1
1314272732.70553541,47.37537003,8.55015850,514.63409424,0,5,1
1314272732.75258446,47.37537003,8.55015945,514.83551025,0,5,1
1314272732.80454397,47.37537003,8.55015945,514.90686035,0,5,1
1314272732.85357857,47.37537003,8.55015945,514.97814941,0,5,1
1314272732.90230489,47.37537003,8.55015945,515.04943848,0,5,1
1314272732.95350981,47.37537003,8.55015945,515.12066650,0,5,1
1314272733.00150871,47.37537003,8.55015945,515.31793213,0,5,1
1314272733.05527902,47.37537003,8.55016041,515.39074707,0,5,1
1314272733.10148931,47.37537003,8.55016041,515.46234131,0,5,1
1314272733.15320921,47.37537003,8.55016041,515.53387451,0,5,1
1314272733.20161176,47.37537003,8.55016041,515.60534668,0,5,1
1314272733.25248456,47.37537003,8.55016041,515.79937744,0,5,1
1314272733.30178857,47.37537003,8.55016041,515.87121582,0,5,1
1314272733.35246468,47.37537003,8.55016041,515.94305420,0,5,1
1314272733.40159059,47.37537003,8.55015945,516.01477051,0,5,1
1314272733.45389724,47.37537003,8.55015945,516.08648682,0,5,1
1314272733.50150561,47.37537003,8.55016041,516.27099609,0,5,1
1314272733.55259418,47.37537003,8.55015850,516.33428955,0,5,1
1314272733.60454082,47.37537003,8.55015850,516.40618896,0,5,1
1314272733.65257978,47.37537003,8.55015850,516.47814941,0,5,1
1314272733.70590782,47.37537003,8.55015850,516.54998779,0,5,1
1314272733.75246668,47.37537003,8.55015850,516.72326660,0,5,1
1314272733.80160165,47.37537384,8.55015659,516.78308105,0,5,1
1314272733.85077119,47.37537384,8.55015659,516.85510254,0,5,1
1314272733.90160513,47.37537384,8.55015564,516.92706299,0,5,1
1314272733.94552875,47.37537003,8.55015564,516.99902344,0,5,1
1314272734.00445271,47.37537003,8.55015659,517.14825439,0,5,1
1314272734.05247545,47.37537003,8.55015659,517.23211670,0,5,1
1314272734.10151219,47.37537003,8.55015659,517.30426025,0,5,1
1314272734.15245008,47.37537003,8.55015564,517.37634277,0,5,1
1314272734.20549870,47.37537003,8.55015564,517.44842529,0,5,1
1314272734.25145292,47.37537003,8.55015659,517.60253906,0,5,1
1314272734.30161095,47.37537003,8.55015564,517.67480469,0,5,1
1314272734.35258293,47.37537003,8.55015564,517.74700928,0,5,1
1314272734.40449834,47.37537003,8.55015564,517.81921387,0,5,1
1314272734.45259142,47.37537003,8.55015564,517.89135742,0,5,1
1314272734.50164294,47.37537003,8.55015564,518.03808594,0,5,1
1314272734.55359578,47.37537003,8.55015659,518.12072754,0,5,1
1314272734.60163283,47.37537003,8.55015659,518.19305420,0,5,1
1314272734.65461588,47.37537003,8.55015564,518.26538086,0,5,1
1314272734.70061302,47.37537003,8.55015564,518.33770752,0,5,1
1314272734.75259590,47.37537003,8.55015659,518.48077393,0,5,1
1314272734.80447698,47.37537003,8.55015755,518.56561279,0,5,1
1314272734.85248613,47.37537003,8.55015755,518.63812256,0,5,1
1314272734.90151358,47.37537003,8.55015755,518.71063232,0,5,1
1314272734.95328045,47.37537003,8.55015755,518.78302002,0,5,1
1314272735.00060296,47.37537003,8.55015755,518.91369629,0,5,1
1314272735.05152583,47.37537003,8.55015755,518.99035645,0,5,1
1314272735.10464263,47.37536621,8.55015755,519.06286621,0,5,1
1314272735.15260458,47.37536621,8.55015755,519.13537598,0,5,1
1314272735.20356894,47.37536621,8.55015755,519.20782471,0,5,1
1314272735.25267220,47.37536621,8.55015755,519.33526611,0,5,1
1314272735.30450964,47.37536621,8.55015755,519.40783691,0,5,1
1314272735.35247731,47.37536621,8.55015659,519.48040771,0,5,1
1314272735.40154982,47.37536621,8.55015659,519.55291748,0,5,1
1314272735.45360970,47.37536621,8.55015659,519.62542725,0,5,1
1314272735.50561237,47.37536621,8.55015755,519.74481201,0,5,1
1314272735.55256963,47.37536621,8.55015850,519.81451416,0,5,1
1314272735.60456061,47.37536621,8.55015850,519.88702393,0,5,1
1314272735.65251017,47.37536621,8.55015850,519.95953369,0,5,1
1314272735.70146871,47.37536621,8.55015850,520.03204346,0,5,1
1314272735.75307155,47.37536240,8.55015945,520.17913818,0,5,1
1314272735.80548263,47.37536240,8.55015945,520.25183105,0,5,1
1314272735.85512018,47.37536240,8.55015945,520.32452393,0,5,1
1314272735.90457511,47.37536240,8.55015945,520.39709473,0,5,1
1314272735.94509172,47.37536240,8.55015945,520.46972656,0,5,1
1314272736.00449324,47.37536240,8.55016041,520.61676025,0,5,1
1314272736.05256820,47.37536240,8.55016041,520.71502686,0,5,1
1314272736.10208416,47.37536240,8.55016041,520.78796387,0,5,1
1314272736.15244532,47.37536240,8.55016041,520.86090088,0,5,1
1314272736.20159483,47.37536240,8.55016041,520.93371582,0,5,1
1314272736.25244689,47.37536240,8.55016136,521.09893799,0,5,1
1314272736.30449152,47.37536240,8.55016136,521.17205811,0,5,1
1314272736.35247588,47.37536240,8.55016136,521.24517822,0,5,1
1314272736.40882277,47.37535858,8.55016136,521.31823730,0,5,1
1314272736.45274305,47.37535858,8.55016136,521.39123535,0,5,1
1314272736.50552106,47.37535858,8.55016232,521.54101562,0,5,1
1314272736.55248928,47.37535858,8.55016232,521.61108398,0,5,1
1314272736.60482645,47.37535858,8.55016232,521.68420410,0,5,1
1314272736.65395260,47.37535858,8.55016232,521.75726318,0,5,1
1314272736.70160365,47.37535858,8.55016232,521.83032227,0,5,1
1314272736.75257635,47.37535858,8.55016327,521.99493408,0,5,1
1314272736.80180669,47.37535858,8.55016327,522.06823730,0,5,1
1314272736.85259247,47.37535858,8.55016327,522.14154053,0,5,1
1314272736.90146852,47.37535858,8.55016327,522.21478271,0,5,1
1314272736.95257926,47.37535858,8.55016327,522.28802490,0,5,1
1314272737.00153351,47.37535477,8.55016422,522.42730713,0,5,1
1314272737.05363393,47.37535477,8.55016327,522.49975586,0,5,1
1314272737.10446000,47.37535477,8.55016327,522.57312012,0,5,1
1314272737.15259337,47.37535477,8.55016327,522.64636230,0,5,1
1314272737.20450377,47.37535477,8.55016327,522.71966553,0,5,1
1314272737.25248361,47.37535477,8.55016518,522.81207275,0,5,1
1314272737.30165434,47.37535477,8.55016422,522.89099121,0,5,1
1314272737.35245228,47.37535477,8.55016422,522.96423340,0,5,1
1314272737.40146661,47.37535477,8.55016422,523.03741455,0,5,1
1314272737.45344043,47.37535477,8.55016422,523.11059570,0,5,1
1314272737.50062513,47.37535095,8.55016613,523.17510986,0,5,1
1314272737.55244255,47.37535095,8.55016613,523.24505615,0,5,1
1314272737.60052633,47.37535095,8.55016613,523.31805420,0,5,1
1314272737.65244508,47.37535095,8.55016613,523.39099121,0,5,1
1314272737.69344950,47.37535095,8.55016613,523.46392822,0,5,1
1314272737.75247169,47.37535095,8.55016613,523.52221680,0,5,1
1314272737.80046368,47.37535095,8.55016804,523.57843018,0,5,1
1314272737.85351062,47.37535095,8.55016804,523.65118408,0,5,1
1314272737.90144777,47.37535095,8.55016804,523.72387695,0,5,1
1314272737.94543982,47.37535095,8.55016804,523.79650879,0,5,1
1314272738.00050306,47.37534714,8.55016804,523.85461426,0,7,1
1314272738.05248904,47.37534714,8.55017090,523.86071777,0,7,1
1314272738.10151935,47.37534714,8.55017090,523.93298340,0,7,1
1314272738.15559149,47.37534714,8.55017090,524.00518799,0,7,1
1314272738.19351172,47.37534714,8.55017090,524.07739258,0,7,1
1314272738.25358748,47.37534714,8.55017281,524.03112793,0,7,1
1314272738.30152249,47.37534332,8.55017471,524.11389160,0,7,1
1314272738.35275555,47.37534332,8.55017471,524.18560791,0,7,1
1314272738.40449381,47.37534332,8.55017471,524.25726318,0,7,1
1314272738.45359468,47.37534332,8.55017471,524.32891846,0,7,1
1314272738.50224948,47.37534332,8.55017662,524.24731445,0,7,1
1314272738.55246949,47.37534332,8.55017757,524.30889893,0,7,1
1314272738.60464191,47.37534332,8.55017757,524.37988281,0,7,1
1314272738.65418720,47.37534332,8.55017757,524.45086670,0,7,1
1314272738.70160580,47.37534332,8.55017757,524.52172852,0,7,1
1314272738.75311255,47.37534332,8.55017757,524.59259033,0,7,1
1314272738.80445552,47.37534332,8.55017948,524.47412109,0,7,1
1314272738.85324335,47.37533951,8.55017948,524.54425049,0,7,1
1314272738.90212679,47.37533951,8.55017948,524.61431885,0,7,1
1314272738.94461775,47.37533951,8.55017948,524.68438721,0,7,1
1314272739.00162959,47.37533951,8.55017948,524.74035645,0,7,1
1314272739.05351424,47.37533951,8.55018044,524.62188721,0,7,1
1314272739.10481262,47.37533951,8.55018044,524.69116211,0,7,1
1314272739.15246224,47.37533951,8.55018044,524.76037598,0,7,1
1314272739.20565224,47.37533951,8.55018044,524.82952881,0,7,1
1314272739.25248933,47.37533951,8.55018139,524.68304443,0,7,1
1314272739.30196977,47.37533951,8.55018139,524.75140381,0,7,1
1314272739.35258865,47.37533951,8.55018139,524.81970215,0,7,1
1314272739.40457940,47.37533569,8.55018139,524.88793945,0,7,1
1314272739.45394158,47.37533569,8.55018139,524.95617676,0,7,1
1314272739.50148058,47.37533569,8.55018044,525.02441406,0,7,1
1314272739.55258250,47.37533569,8.55018520,524.87506104,0,7,1
1314272739.60446024,47.37533569,8.55018520,524.94244385,0,7,1
1314272739.65257287,47.37533569,8.55018520,525.00976562,0,7,1
1314272739.69258404,47.37533569,8.55018520,525.07708740,0,7,1
1314272739.75298762,47.37533569,8.55018711,524.93078613,0,7,1
1314272739.80161476,47.37533569,8.55018520,525.00457764,0,7,1
1314272739.85385466,47.37533569,8.55018520,525.07098389,0,7,1
1314272739.90448403,47.37533569,8.55018520,525.13739014,0,7,1
1314272739.94447041,47.37533569,8.55018520,525.20379639,0,7,1
1314272740.00447607,47.37533569,8.55018520,525.25683594,0,7,1
1314272740.05258322,47.37533569,8.55018520,525.13165283,0,7,1
1314272740.10447574,47.37533569,8.55018520,525.19720459,0,7,1
1314272740.15248561,47.37533188,8.55018520,525.26269531,0,7,1
1314272740.19363236,47.37533188,8.55018520,525.32812500,0,7,1
1314272740.25366807,47.37533188,8.55018520,525.38043213,0,7,1
1314272740.30085421,47.37533188,8.55018616,525.26934814,0,7,1
1314272740.35245323,47.37533188,8.55018520,525.33404541,0,7,1
1314272740.40447402,47.37533188,8.55018520,525.39868164,0,7,1
1314272740.44567895,47.37533188,8.55018520,525.46331787,0,7,1
1314272740.50147510,47.37533188,8.55018520,525.51495361,0,7,1
1314272740.55338120,47.37533188,8.55018806,525.43170166,0,7,1
1314272740.60059428,47.37533188,8.55018806,525.49566650,0,7,1
1314272740.65555620,47.37533188,8.55018806,525.55957031,0,7,1
1314272740.69248939,47.37533188,8.55018806,525.62347412,0,7,1
1314272740.75360155,47.37532806,8.55018806,525.67462158,0,7,1
1314272740.80446219,47.37533188,8.55018902,525.60876465,0,7,1
1314272740.85260367,47.37533188,8.55018806,525.67211914,0,7,1
1314272740.90151453,47.37533188,8.55018806,525.73535156,0,7,1
1314272740.94444275,47.37533188,8.55018806,525.79858398,0,7,1
1314272741.00044537,47.37533188,8.55018806,525.84918213,0,7,1
1314272741.05250025,47.37533188,8.55018902,525.77459717,0,7,1
1314272741.10616708,47.37533188,8.55018902,525.83715820,0,7,1
1314272741.15246534,47.37533188,8.55018806,525.89971924,0,7,1
1314272741.20453119,47.37533188,8.55018806,525.96221924,0,7,1
1314272741.25296783,47.37533569,8.55018902,525.89544678,0,7,1
1314272741.30186319,47.37533188,8.55018902,525.95745850,0,7,1
1314272741.35352707,47.37533188,8.55018902,526.01947021,0,7,1
1314272741.40156460,47.37533188,8.55018902,526.08135986,0,7,1
1314272741.44206309,47.37533188,8.55018902,526.14331055,0,7,1
1314272741.50161314,47.37533188,8.55018902,526.19281006,0,7,1
1314272741.55358791,47.37533188,8.55019093,526.14501953,0,7,1
1314272741.60448360,47.37533188,8.55019093,526.20648193,0,7,1
1314272741.65251422,47.37533188,8.55019093,526.26782227,0,7,1
1314272741.69330716,47.37533188,8.55019093,526.32916260,0,7,1
1314272741.75246429,47.37533188,8.55019188,526.25354004,0,7,1
1314272741.80447745,47.37533188,8.55019283,526.33007812,0,7,1
1314272741.85363030,47.37533188,8.55019283,526.39093018,0,7,1
1314272741.90448809,47.37533188,8.55019283,526.45172119,0,7,1
1314272741.94477844,47.37533188,8.55019283,526.51251221,0,7,1
1314272742.00471520,47.37533188,8.55019283,526.56109619,0,7,1
1314272742.05247664,47.37533188,8.55019283,526.50830078,0,7,1
1314272742.10213494,47.37533188,8.55019283,526.56854248,0,7,1
1314272742.15245986,47.37533188,8.55019283,526.62872314,0,7,1
1314272742.20116711,47.37533188,8.55019283,526.68884277,0,7,1
1314272742.25423336,47.37533188,8.55019474,526.63201904,0,7,1
1314272742.30563498,47.37533188,8.55019379,526.69177246,0,7,1
1314272742.35360622,47.37533188,8.55019379,526.75140381,0,7,1
1314272742.40446448,47.37533188,8.55019379,526.81103516,0,7,1
1314272742.44160318,47.37533188,8.55019379,526.87060547,0,7,1
1314272742.50209951,47.37533188,8.55019379,526.91821289,0,7,1
1314272742.55346203,47.37533188,8.55019379,526.86901855,0,7,1
1314272742.60546947,47.37533188,8.55019283,526.92810059,0,7,1
1314272742.65508580,47.37533188,8.55019283,526.98712158,0,7,1
1314272742.69245529,47.37533188,8.55019283,527.04614258,0,7,1
1314272742.75245118,47.37533188,8.55019379,526.96936035,0,7,1
1314272742.80204272,47.37533188,8.55019474,527.04290771,0,7,1
1314272742.85246921,47.37533188,8.55019379,527.10144043,0,7,1
1314272742.90185642,47.37533188,8.55019379,527.15991211,0,7,1
1314272742.94448829,47.37533188,8.55019379,527.21832275,0,7,1
1314272743.00556183,47.37533188,8.55019379,527.26507568,0,7,1
1314272743.05372763,47.37533188,8.55019379,527.20159912,0,7,1
1314272743.10552645,47.37533188,8.55019379,527.25946045,0,7,1
1314272743.15259242,47.37533188,8.55019379,527.31732178,0,7,1
1314272743.20450830,47.37533188,8.55019379,527.37512207,0,7,1
1314272743.25316596,47.37533188,8.55019474,527.30981445,0,7,1
1314272743.30146027,47.37533188,8.55019474,527.36706543,0,7,1
1314272743.35244465,47.37533188,8.55019474,527.42437744,0,7,1
1314272743.40555549,47.37533188,8.55019474,527.48162842,0,7,1
1314272743.44157863,47.37533188,8.55019474,527.53881836,0,7,1
1314272743.50057769,47.37533188,8.55019474,527.58453369,0,7,1
1314272743.55260253,47.37533188,8.55019474,527.52575684,0,7,1
1314272743.60445261,47.37533188,8.55019474,527.58239746,0,7,1
1314272743.65359259,47.37533188,8.55019474,527.63903809,0,7,1
1314272743.69073534,47.37532806,8.55019474,527.69567871,0,7,1
1314272743.75645614,47.37532806,8.55019474,527.74090576,0,7,1
